Regional Weather Roundup
Issued by NWS

Home | Current Version | Previous Version | Graphics & Text | Print | Product List | Glossary On
Versions: 1 2 3 4 5 6 7 8 9 10 11 12 13 14 15 16 17 18 19 20 21 22 23 24 25 26 27 28 29 30 31 32 33 34 35 36 37 38 39 40 41 42 43 44 45 46 47 48 49 50
637
ASUS45 KCYS 231310
RWRWY

WYOMING REGIONAL WEATHER ROUNDUP
NATIONAL WEATHER SERVICE CHEYENNE WY
600 AM MST THU NOV 23 2017

NOTE:  "FAIR" INDICATES FEW OR NO CLOUDS BELOW 12,000 FEET
WITH NO SIGNIFICANT WEATHER AND/OR OBSTRUCTIONS TO VISIBILITY.

WYZ001-231400-
YELLOWSTONE NATIONAL PARK

CITY           SKY/WX    TMP DP  RH WIND       PRES   REMARKS
LK YELLOWSTONE   N/A     33  33 100 CALM      30.31F
W YELLOWSTONE  NOT AVBL

$$
WYZ002>013-054>058-071-098>099-231400-
NORTHERN WYOMING

CITY           SKY/WX    TMP DP  RH WIND       PRES   REMARKS
JACKSON        FAIR      31  30  96 NE7       30.29F WCI  24
CODY           FAIR      58  35  42 W10G18    30.10S
GREYBULL       FAIR      29  28  96 CALM      30.11F
WORLAND        FAIR      31  31 100 SW5       30.10F WCI  26
SHERIDAN       FAIR      48  36  63 SW6       29.96F
BUFFALO        FAIR      51  28  41 S3        30.04F
GILLETTE       FAIR      51  36  56 SW21      30.02S
HULETT         FAIR      46  36  66 SW10      30.01F
NEWCASTLE      FAIR      34  32  93 CALM      30.08F

$$
WYZ014>020-022>026-101>103-231400-
CENTRAL WYOMING

CITY           SKY/WX    TMP DP  RH WIND       PRES   REMARKS
BIG PINEY      FAIR      22  21  96 E5        30.34F WCI  16
PINEDALE       FAIR      27  27 100 W3        30.35F
DUBOIS         FAIR      45  32  61 NW17G25   30.22F
LANDER         FAIR      42  33  70 SW6       30.17F
RIVERTON       FAIR      42  34  73 SW9       30.17F
CASPER         FAIR      45  36  70 SW17      30.17F
DOUGLAS        FAIR      36  34  92 N5        30.13F WCI  32

$$
WYZ021-027>030-104>119-231400-
SOUTHERN WYOMING

CITY           SKY/WX    TMP DP  RH WIND       PRES   REMARKS
EVANSTON       FAIR      39  35  86 S10       30.36F WCI  32
KEMMERER       FAIR      34  32  93 NW3       30.36F
FORT BRIDGER   FAIR      42  34  75 W6        30.38S
ROCK SPRINGS   FAIR      41  34  76 SW13      30.34F
DIXON          FAIR      30  28  94 CALM      30.39S
RAWLINS        FAIR      41  35  79 W14       30.30S
SARATOGA       FAIR      37  34  87 SE7       30.33S WCI  32
LARAMIE        FAIR      40  34  79 W10       30.27F WCI  33
CHEYENNE       FAIR      43  35  73 W6        30.21F
TORRINGTON     FAIR      46  39  76 SW3       30.10S
PINE BLUFFS    FAIR      41  34  75 MISG      30.17F

$$




USA.gov is the U.S. government's official web portal to all federal, state and local government web resources and services.